Grand Canyon, AZ

9:42 PM MST on May 26, 2018 (GMT -0700)
Grand Canyon National Park

Weather History for KGCN - August, 2013

Change the Weather History Date:

Saturday, August 10, 2013

  Actual Average Record
Temperature  
Mean Temperature 63 °F -  
Max Temperature 82 °F 81 °F 91 °F (2002)
Min Temperature 44 °F 48 °F 44 °F (2002)
Degree Days  
Heating Degree Days 2    
Growing Degree Days 13 (Base 50)    
Moisture  
Dew Point 29 °F    
Average Humidity 31    
Maximum Humidity 63    
Minimum Humidity 13    
Precipitation  
Precipitation 0.00 in - - ()
Sea Level Pressure  
Sea Level Pressure 30.02 in    
Wind  
Wind Speed 4 mph (SSW)    
Max Wind Speed 18 mph    
Max Gust Speed 25 mph    
Visibility 8 miles    
Events      
Averages and records for this station are not official NWS values.
T = Trace of Precipitation, MM = Missing Value Source: NWS Daily Summary

Daily Weather History Graph

Daily Weather History Graph

Search for Another Location

Airport or City:

Astronomy

Aug. 10, 2013 Rise Set
Actual Time 5:43 AM MST 7:23 PM MST
Civil Twilight 5:15 AM MST 7:51 PM MST
Nautical Twilight 4:42 AM MST 8:24 PM MST
Astronomical Twilight 4:07 AM MST 8:59 PM MST
Moon 9:24 AM MST (8/10) 9:17 PM MST (8/10)
Length of Visible Light 14h 35m
Length of Day
13h 40m
Waxing Crescent, 15% of the Moon is Illuminated
Aug 10
Waxing Crescent
Aug 14
First Quarter
Aug 20
Full
Aug 28
Last Quarter
Sep 5
New

Hourly Weather History & Observations

Time (MST) Temp. Dew Point Humidity Pressure Visibility Wind Dir Wind Speed Gust Speed Precip Events Conditions
12:54 AM 48.0 °F 30.9 °F 52% 30.00 in 6.0 mi Calm Calm - N/A   Haze
1:54 AM 46.9 °F 30.9 °F 54% 29.99 in 4.0 mi Calm Calm - N/A   Haze
2:54 AM 46.0 °F 30.9 °F 56% 30.00 in 3.0 mi Calm Calm - N/A   Haze
3:54 AM 46.9 °F 32.0 °F 56% 30.00 in 5.0 mi Calm Calm - N/A   Haze
4:54 AM 44.1 °F 32.0 °F 63% 30.02 in 6.0 mi Calm Calm - N/A   Haze
5:54 AM 44.1 °F 32.0 °F 63% 30.06 in 10.0 mi Calm Calm - N/A   Clear
6:54 AM 52.0 °F 36.0 °F 54% 30.05 in 4.0 mi Calm Calm - N/A   Haze
7:54 AM 68.0 °F 33.1 °F 27% 30.02 in 4.0 mi South 4.6 mph - N/A   Haze
8:54 AM 73.9 °F 27.0 °F 18% 30.04 in 10.0 mi South 9.2 mph - N/A   Partly Cloudy
9:54 AM 75.0 °F 28.0 °F 18% 30.04 in 10.0 mi South 6.9 mph 18.4 mph N/A   Mostly Cloudy
10:54 AM 75.9 °F 28.0 °F 17% 30.07 in 10.0 mi SW 10.4 mph - N/A   Mostly Cloudy
11:54 AM 80.1 °F 28.0 °F 15% 30.05 in 10.0 mi SSW 9.2 mph 17.3 mph N/A   Scattered Clouds
12:54 PM 80.1 °F 28.0 °F 15% 30.04 in 10.0 mi SSW 12.7 mph 23.0 mph N/A   Mostly Cloudy
1:54 PM 79.0 °F 26.1 °F 14% 30.04 in 10.0 mi South 12.7 mph 21.9 mph N/A   Mostly Cloudy
2:54 PM 82.9 °F 27.0 °F 13% 30.01 in 10.0 mi SW 18.4 mph 25.3 mph N/A   Scattered Clouds
3:54 PM 81.0 °F 27.0 °F 14% 30.00 in 10.0 mi SW 5.8 mph 20.7 mph N/A   Scattered Clouds
4:54 PM 81.0 °F 27.0 °F 14% 29.99 in 10.0 mi SW 9.2 mph - N/A   Clear
5:54 PM 80.1 °F 26.1 °F 14% 29.99 in 10.0 mi SSW 15.0 mph 21.9 mph N/A   Scattered Clouds
6:54 PM 77.0 °F 25.0 °F 15% 29.99 in 10.0 mi SSW 6.9 mph - N/A   Partly Cloudy
7:54 PM 66.0 °F 26.1 °F 22% 29.98 in 10.0 mi Calm Calm - N/A   Clear
8:54 PM 66.9 °F 27.0 °F 22% 29.98 in 10.0 mi South 6.9 mph - N/A   Clear
9:54 PM 64.0 °F 27.0 °F 25% 30.00 in 10.0 mi South 4.6 mph - N/A   Clear
10:54 PM 52.0 °F 28.9 °F 41% 30.05 in 10.0 mi ESE 3.5 mph - N/A   Clear
11:54 PM 64.0 °F 41.0 °F 43% 30.00 in 10.0 mi SE 8.1 mph - N/A   Clear